This is the latest recevied weather packets stored in our database for station/object HEBOWX. If no packets are shown the sender has not sent any weather packets the latest 10 day(s).
| Time | Temp. | Humidity | Pressure | Rain* | Wind** | Luminosity | Snow |
|---|---|---|---|---|---|---|---|
| 1778184335 | 13.89° C | 52% | 1016 hPa | 0 mm | - | - | - |
| 1778184035 | 13.33° C | 56% | 1016 hPa | 0 mm | - | - | - |
| 1778183734 | 13.33° C | 55% | 1016.1 hPa | 0 mm | - | - | - |
| 1778183434 | 13.33° C | 55% | 1016 hPa | 0 mm | - | - | - |
| 1778183134 | 12.78° C | 56% | 1016.4 hPa | 0 mm | - | - | - |
| 1778182535 | 12.78° C | 56% | 1016.5 hPa | 0 mm | - | - | - |
| 1778182235 | 12.78° C | 56% | 1016.2 hPa | 0 mm | - | - | - |
| 1778181934 | 12.78° C | 57% | 1016.5 hPa | 0 mm | - | - | - |
| 1778181634 | 12.78° C | 58% | 1016.1 hPa | 0 mm | - | - | - |
| 1778181334 | 12.22° C | 57% | 1016.2 hPa | 0 mm | - | - | - |
| 1778181035 | 12.22° C | 58% | 1016.1 hPa | 0 mm | - | - | - |
| 1778180734 | 12.22° C | 59% | 1016.1 hPa | 0 mm | - | - | - |
| 1778180435 | 12.22° C | 57% | 1016.2 hPa | 0 mm | - | - | - |
| 1778180135 | 12.22° C | 56% | 1016.2 hPa | 0 mm | - | - | - |
| 1778179834 | 11.67° C | 58% | 1016.2 hPa | 0 mm | - | - | - |
| 1778179534 | 11.67° C | 59% | 1016 hPa | 0 mm | - | - | - |
| 1778179234 | 11.67° C | 59% | 1016.5 hPa | 0 mm | - | - | - |
| 1778178935 | 11.11° C | 61% | 1016.2 hPa | 0 mm | - | - | - |
| 1778178634 | 11.11° C | 62% | 1016.1 hPa | 0 mm | - | - | - |
| 1778178334 | 11.11° C | 63% | 1016.2 hPa | 0 mm | - | - | - |
| 1778178034 | 11.11° C | 64% | 1016.1 hPa | 0 mm | - | - | - |
| 1778177734 | 11.11° C | 63% | 1016.1 hPa | 0 mm | - | - | - |
| 1778177434 | 10.56° C | 64% | 1016.3 hPa | 0 mm | - | - | - |
| 1778177134 | 10.56° C | 64% | 1016.2 hPa | 0 mm | - | - | - |
| 1778176834 | 10.56° C | 64% | 1016.1 hPa | 0 mm | - | - | - |
* Rain latest hour (hover to see other rain measurements)
** Current wind speed in m/s (hover to see current wind gust speed)